GFSSGP_sfc_dewp_057.txt.gz
Dewpoint
70 64 62 61 46 43 40 38 41 43 49 53 53 47 50 53 45 40 64 69 70 72 73 74 73 73 73 72 71 71 69 69 67 65 68 70 69 70 72 72 72 72 73 73 73 73 73 73 72
69 61 63 54 44 39 38 39 44 49 52 53 50 52 53 53 57 63 64 69 71 72 73 74 73 74 73 71 70 70 69 70 69 64 66 68 70 69 69 71 69 70 71 73 73 73 72 72 72
59 61 54 49 46 39 32 35 41 49 46 46 47 51 53 54 57 63 62 69 71 71 72 71 73 73 73 70 69 70 71 71 68 65 66 65 68 68 68 68 68 69 70 71 72 72 72 72 72
52 55 44 41 36 35 30 28 43 31 39 45 49 52 53 51 53 57 67 70 69 70 71 72 73 73 71 70 69 69 70 69 67 65 65 64 65 68 68 67 68 66 68 69 70 72 71 72 72
56 48 36 34 34 26 24 29 28 32 37 36 45 51 52 48 51 64 67 68 69 69 71 72 72 72 71 71 70 69 71 70 67 65 65 65 64 63 64 64 64 64 66 66 67 69 71 71 71
51 44 33 31 30 25 23 28 27 28 30 31 45 45 48 44 46 57 68 68 69 70 71 71 72 73 72 71 71 68 69 70 69 67 65 65 65 64 63 62 62 62 62 63 62 67 68 71 71
46 43 35 29 25 26 22 26 25 28 29 32 36 37 41 47 51 64 63 51 60 69 70 70 71 71 72 71 70 69 71 70 69 68 67 67 66 65 65 64 62 61 62 61 61 64 67 69 70
48 43 31 30 26 24 28 30 31 29 31 35 38 36 49 44 49 47 45 43 45 50 52 61 71 71 71 70 71 71 70 71 71 71 71 69 69 69 68 67 66 65 65 63 63 62 65 67 68
46 34 30 30 29 27 27 27 33 35 35 37 39 40 43 46 45 41 36 35 44 54 57 66 66 69 71 70 71 71 72 72 71 70 70 69 68 68 68 68 68 68 68 66 65 64 63 64 67
40 33 29 31 31 25 31 30 31 32 34 35 37 38 39 42 40 35 31 32 36 38 53 63 64 64 66 65 66 67 67 66 64 64 64 66 66 65 66 67 68 68 68 68 66 66 66 64 61
38 36 33 35 32 33 31 31 36 31 31 34 37 37 35 37 36 30 28 25 26 29 38 45 57 60 62 62 63 63 62 63 62 58 59 61 60 60 60 61 64 65 66 62 61 59 58 59 60
31 34 34 38 36 30 31 32 33 34 33 33 37 35 33 34 32 27 23 23 24 25 26 30 35 36 35 39 45 52 57 56 51 48 51 54 53 53 57 57 56 54 61 64 63 62 61 57 54
31 32 34 33 33 34 33 33 30 32 33 32 33 31 31 30 29 26 22 23 25 26 27 28 29 30 31 32 34 36 40 43 44 43 42 45 45 43 48 49 51 50 51 59 61 61 61 60 59
32 30 30 33 32 33 31 33 32 31 32 30 30 29 27 28 25 22 22 23 24 25 27 28 28 28 29 30 31 33 34 35 35 36 37 40 40 38 41 40 42 44 47 51 56 57 58 59 60
29 27 26 29 30 30 31 27 29 31 31 30 27 26 25 24 24 21 22 24 24 25 27 28 29 29 29 30 31 33 34 34 33 33 32 33 36 35 38 38 39 38 42 46 47 50 54 54 55
20 21 18 22 31 31 25 21 27 31 30 30 26 24 22 21 22 22 23 24 25 25 26 28 30 29 29 29 30 30 32 33 32 32 32 33 36 35 34 34 35 39 41 44 43 45 49 48 51
20 12 18 18 30 31 26 23 29 31 29 29 29 25 22 20 20 21 23 24 25 24 25 26 27 28 29 29 30 30 30 32 32 31 32 32 36 36 33 34 35 36 37 37 40 42 45 47 47
11 16 16 17 25 30 28 26 27 30 29 29 29 26 24 20 19 20 22 24 25 25 24 25 27 27 27 28 29 29 30 30 30 31 32 31 35 33 33 34 34 34 35 34 36 38 40 44 46
18 17 16 18 25 28 28 28 28 29 29 29 28 26 24 21 20 20 21 21 22 24 24 24 25 26 27 28 27 27 28 28 29 31 32 31 33 33 33 34 33 34 33 33 34 36 39 39 43
23 20 18 22 29 27 26 26 27 28 29 29 29 27 24 21 19 19 20 20 22 22 23 24 25 25 28 29 29 29 28 29 31 33 30 32 32 32 32 31 32 32 33 32 32 33 34 38 41
25 21 22 22 26 25 25 24 25 28 30 29 29 27 25 21 19 19 20 20 21 22 23 24 25 26 28 29 30 29 28 29 29 29 30 32 31 31 31 31 31 31 32 33 32 33 33 34 36
21 28 28 28 24 20 25 19 22 24 27 28 27 26 25 22 20 20 20 21 21 23 25 26 27 27 29 28 27 25 26 26 28 29 32 30 29 29 30 31 31 30 32 31 32 33 33 34 34
25 30 28 28 24 25 21 18 17 25 24 26 27 27 25 23 21 21 21 21 22 23 25 27 28 30 30 27 28 28 26 29 29 28 26 26 29 30 31 31 30 31 32 32 32 32 32 34 34
30 24 25 28 24 18 18 15 15 22 23 24 27 27 27 24 22 21 22 22 23 25 27 30 30 31 29 29 27 25 25 24 24 23 25 28 30 31 31 31 31 31 32 32 33 32 32 33 34
24 17 15 13 19 14 21 17 16 18 18 20 22 27 27 26 22 22 22 22 23 25 27 31 31 29 28 26 25 24 22 21 21 24 27 28 30 30 31 31 31 32 32 33 33 33 32 32 33
24 18 15 9 16 20 18 17 17 17 16 20 24 26 26 26 23 22 23 22 23 25 28 29 28 28 25 23 20 20 22 25 26 28 28 29 30 31 32 32 32 32 32 32 33 33 34 33 34
22 21 21 15 13 10 12 12 17 15 15 19 21 24 26 26 24 23 23 22 22 25 26 27 28 24 20 19 21 22 24 25 27 27 28 30 31 31 31 32 32 32 32 32 32 32 31 31 31
20 20 15 15 4 6 11 9 15 13 13 15 18 20 23 24 23 22 22 23 24 25 25 24 22 19 19 22 23 24 25 25 27 28 29 30 30 31 32 32 31 31 31 32 32 32 32 32 32
18 16 16 16 16 11 8 6 14 14 15 15 15 16 19 20 22 22 22 23 25 24 24 21 19 20 21 23 24 25 26 27 28 29 30 30 31 31 30 30 30 30 30 31 31 31 31 31 32
18 13 14 11 7 14 15 18 19 13 15 15 15 18 20 21 23 24 24 23 23 24 21 18 20 22 23 25 25 26 27 28 28 29 29 30 30 29 29 30 30 30 30 30 30 31 31 32 32

GFSSGP_sfc_dewp_060.txt.gz
Dewpoint
71 65 63 56 43 42 38 38 40 44 50 54 54 50 51 52 44 39 63 68 70 71 73 72 72 74 73 71 70 70 69 67 65 66 69 70 68 70 72 71 72 72 73 73 73 73 72 72 73
70 62 60 51 41 36 37 38 44 49 53 51 51 53 53 53 58 62 63 69 71 72 73 73 72 73 72 70 70 70 69 70 65 64 66 69 69 68 69 70 69 69 71 72 73 73 72 72 72
58 60 51 48 43 37 33 35 46 50 47 46 50 52 55 54 59 62 64 69 71 71 73 73 72 72 72 70 70 70 71 70 65 65 65 65 68 68 68 68 68 68 70 70 72 72 72 72 72
53 51 41 40 34 35 30 36 47 39 41 46 51 53 52 51 52 58 66 69 70 70 71 72 72 73 71 70 69 70 70 68 65 65 65 64 66 67 66 66 66 66 67 69 69 71 72 71 71
54 43 35 33 29 26 25 31 32 36 40 39 48 51 53 46 58 63 68 69 69 69 70 72 73 72 71 70 69 70 70 69 67 65 65 65 64 62 63 63 63 63 64 64 65 68 71 72 72
49 40 32 28 27 26 24 27 28 30 30 35 49 50 48 45 55 67 67 68 69 69 71 72 72 72 71 70 70 69 70 70 68 67 65 65 65 64 64 62 61 62 62 62 62 64 68 70 71
44 39 34 30 24 25 22 25 24 25 29 34 42 46 43 51 55 60 50 56 69 70 70 70 71 71 72 71 70 70 70 70 70 69 68 67 66 65 65 65 64 63 64 64 64 62 64 68 69
47 38 28 26 24 23 25 29 30 28 31 36 38 47 49 48 47 43 47 53 55 57 58 67 70 70 70 71 72 72 72 72 71 71 71 71 70 70 70 69 68 67 67 67 65 64 64 63 66
43 34 29 29 27 26 27 28 34 36 35 38 39 41 44 46 40 43 49 49 55 62 65 67 68 69 68 69 70 69 68 66 65 65 67 65 66 66 67 69 69 69 69 69 67 66 66 66 65
38 34 30 33 31 26 29 29 31 32 36 38 38 39 43 39 35 42 49 48 47 49 58 62 63 63 63 63 65 64 62 60 57 58 59 57 58 57 60 61 64 67 66 65 65 65 63 61 61
39 35 33 35 33 32 31 32 35 31 31 37 39 39 39 34 30 33 32 37 40 40 40 42 50 55 59 59 58 55 48 48 44 46 50 52 51 52 52 51 51 51 61 63 62 61 60 58 57
32 34 34 37 34 32 30 33 33 32 32 33 39 36 36 29 26 28 29 31 31 30 31 33 34 34 35 41 44 48 47 44 40 42 45 45 43 44 47 46 47 45 49 54 56 58 60 59 59
31 34 32 34 33 33 32 32 29 32 33 35 34 33 34 29 25 23 24 25 26 27 28 29 30 30 31 33 34 35 36 38 40 39 40 41 39 39 43 42 44 42 43 48 51 53 56 57 57
32 31 29 32 33 33 30 32 32 30 32 32 31 31 31 28 23 22 24 25 25 26 27 28 29 29 30 31 32 33 33 33 33 33 35 38 37 35 37 36 36 39 43 43 43 45 51 52 52
27 28 26 29 30 30 30 24 28 30 31 30 29 28 28 27 23 22 24 24 25 26 27 28 29 29 29 30 32 33 33 33 31 32 31 34 36 34 35 34 35 36 39 42 38 39 44 44 46
20 20 20 22 30 32 25 19 26 31 30 29 27 26 24 24 22 21 24 25 25 26 27 29 30 29 28 28 30 30 32 32 31 31 32 33 36 33 33 33 34 36 38 40 39 40 41 41 43
19 18 17 17 30 31 25 20 28 31 30 30 27 24 23 21 22 21 23 25 25 26 27 28 28 28 29 29 29 30 30 30 30 30 31 31 35 33 32 33 34 34 34 34 37 37 40 41 40
15 14 15 14 24 30 27 26 27 30 29 29 29 25 23 20 21 22 23 25 25 25 25 26 27 27 27 29 29 29 29 28 29 30 31 30 34 32 32 33 33 33 33 33 33 34 36 38 41
14 17 16 17 24 27 26 27 27 29 30 29 29 28 25 21 20 21 23 24 25 24 24 25 26 27 28 28 27 27 27 27 28 30 30 30 31 32 31 32 32 33 32 31 31 33 36 36 40
22 19 18 21 29 27 26 26 27 29 29 30 29 29 27 23 19 19 21 22 23 23 23 24 24 26 27 29 29 28 27 28 29 32 29 31 30 31 30 30 31 30 31 31 31 31 32 35 37
23 20 20 21 26 26 25 24 23 26 29 29 30 29 27 24 20 18 19 20 21 22 23 23 24 25 27 29 30 29 28 28 28 28 29 31 30 30 30 29 30 30 31 32 31 32 32 32 34
21 27 27 27 24 19 24 16 19 24 26 27 28 28 26 24 20 19 19 20 20 21 23 24 26 26 28 29 28 26 26 26 27 28 30 29 28 28 30 30 30 30 31 31 31 33 33 33 32
25 29 27 27 23 21 21 18 15 22 23 23 27 27 27 25 21 20 20 20 21 22 24 25 26 28 30 28 28 28 27 28 29 27 25 25 28 29 30 30 30 30 31 31 31 31 31 32 33
28 22 24 28 24 15 18 14 14 18 23 21 22 27 27 26 23 21 21 22 22 23 25 28 28 29 30 29 28 26 25 23 22 22 24 27 29 31 30 31 31 31 32 32 32 32 32 31 32
22 21 18 9 17 11 21 17 17 18 17 17 18 21 27 27 24 23 22 22 23 24 25 30 30 30 28 26 25 23 21 20 21 24 26 27 29 30 30 31 31 32 32 33 33 33 32 32 32
23 20 15 6 13 18 20 17 17 17 16 20 24 26 27 27 25 23 23 23 22 24 26 29 29 28 25 20 19 21 22 25 26 27 28 28 29 30 31 31 32 32 32 32 32 33 33 32 33
23 22 21 15 12 10 13 10 16 15 14 17 21 24 26 26 25 24 23 22 22 24 26 27 27 23 19 20 22 22 24 24 26 26 28 30 30 31 30 32 32 31 31 32 32 32 31 32 32
20 20 15 15 5 2 9 10 14 13 14 15 16 17 20 21 21 21 22 22 24 25 24 22 20 19 20 22 23 24 24 25 27 28 29 29 30 31 31 31 31 30 31 31 31 31 32 32 32
18 17 16 15 15 11 7 5 12 14 15 14 16 19 21 22 23 23 23 24 25 24 21 19 19 21 22 24 24 25 26 27 27 28 29 29 30 31 30 30 29 30 30 30 30 30 30 31 31
18 17 14 15 6 13 14 16 18 14 14 17 17 19 20 22 23 24 24 23 24 22 19 19 21 22 23 24 25 26 27 28 28 28 28 29 29 29 29 29 29 30 30 30 30 30 30 30 30

GFSSGP_sfc_dewp_063.txt.gz
Dewpoint
71 63 65 60 51 48 40 39 41 48 50 54 53 48 50 53 42 42 65 67 69 70 72 71 72 73 72 71 70 69 68 66 64 67 70 70 69 71 71 70 71 72 73 73 73 72 72 73 73
70 62 61 55 46 40 38 40 44 50 54 53 52 54 53 52 58 61 63 69 70 70 72 71 73 72 72 70 70 69 70 68 65 66 66 69 68 68 69 69 69 69 71 71 72 72 72 72 72
59 60 54 51 44 39 36 37 50 52 50 47 53 54 55 55 59 60 64 69 69 70 72 72 73 72 71 70 70 71 70 67 65 66 65 67 67 67 67 67 66 66 69 70 71 72 72 72 72
57 55 45 43 36 37 33 42 51 47 41 50 54 52 51 51 53 59 68 68 67 70 72 72 73 72 71 69 70 70 69 67 65 65 65 64 65 66 64 64 63 63 65 66 67 70 71 72 72
55 47 41 35 26 24 26 43 47 38 41 45 50 53 52 47 62 61 68 67 67 70 71 70 73 72 71 70 69 71 70 69 67 65 65 65 64 63 62 62 62 63 63 62 62 64 69 70 71
54 45 37 32 26 24 25 36 31 32 33 42 53 53 51 51 63 67 67 67 67 69 70 71 72 72 71 71 70 70 71 70 68 67 66 66 65 65 66 64 63 65 65 65 63 62 65 67 70
51 45 38 33 29 24 27 28 26 30 31 40 49 51 47 55 62 66 66 69 68 69 70 70 70 71 71 71 70 70 70 71 71 71 70 70 70 68 67 68 68 67 67 67 66 65 64 64 66
51 44 34 31 29 28 27 29 30 28 30 37 38 49 51 56 50 54 62 64 63 64 65 70 70 69 70 69 71 71 71 70 70 69 69 69 69 70 70 69 69 70 70 69 68 67 67 67 66
44 42 36 35 30 31 29 29 33 35 36 38 40 43 47 45 47 56 59 60 63 64 66 69 69 69 70 69 65 64 63 61 61 61 60 60 61 60 61 64 67 68 67 67 67 66 65 64 63
43 43 39 36 34 31 30 29 33 34 37 39 40 43 44 41 50 58 59 59 60 63 64 66 65 64 65 61 61 58 48 49 46 46 47 45 45 49 48 51 52 56 61 62 62 63 62 61 59
41 42 37 35 34 32 32 32 33 34 34 39 41 45 40 38 46 53 55 57 56 54 55 55 58 59 56 48 43 40 39 38 39 39 39 40 40 41 41 41 42 43 50 46 49 52 56 56 56
34 34 35 36 36 33 32 34 32 33 32 34 43 43 37 38 44 47 49 48 44 44 43 43 44 47 43 42 39 38 35 36 36 40 40 39 38 37 38 38 40 41 41 41 41 42 45 45 44
32 34 33 34 34 33 34 31 30 33 33 39 41 40 34 34 35 36 41 36 34 34 34 33 33 34 33 33 34 34 34 32 36 37 39 38 38 35 36 36 38 39 40 39 37 38 39 40 40
33 32 31 31 33 33 30 31 32 31 35 36 38 39 31 30 31 29 31 30 29 29 30 30 30 31 31 32 34 34 34 34 35 37 39 38 35 34 36 35 36 36 39 37 34 35 38 38 37
30 29 28 29 30 30 31 26 30 31 34 34 34 35 32 28 26 28 29 29 28 28 29 29 31 30 30 32 35 36 34 34 34 35 35 37 37 34 35 35 34 34 35 36 35 34 35 35 35
26 25 29 24 30 32 26 26 24 32 31 33 32 31 32 26 24 25 26 27 27 28 28 30 29 29 30 32 34 33 33 33 34 34 35 36 35 35 35 35 35 36 36 39 37 35 35 34 34
23 27 23 24 29 30 26 25 27 32 31 31 31 29 28 27 24 23 26 26 27 28 28 31 31 29 29 30 32 32 31 32 33 33 34 35 35 34 34 35 35 36 36 34 35 33 36 33 32
27 18 16 21 25 29 28 29 29 31 31 32 30 28 26 25 23 23 25 27 27 28 29 29 30 29 30 32 31 33 32 32 33 33 33 31 35 34 35 35 34 34 34 34 33 33 33 34 33
21 19 18 18 23 26 27 28 29 30 32 32 32 29 26 23 24 24 25 26 26 26 27 27 28 28 30 31 31 32 33 32 33 34 31 33 33 33 35 35 33 35 34 33 34 34 34 32 35
24 19 19 23 28 28 28 27 29 30 31 32 31 30 28 25 21 22 24 26 25 25 26 26 27 30 29 33 33 32 31 32 33 37 33 34 32 32 31 33 33 34 34 33 33 35 34 34 35
26 22 22 21 26 26 27 27 25 25 29 30 31 32 31 27 22 21 22 25 28 26 27 26 26 28 31 32 34 33 33 34 34 33 33 34 31 31 31 32 32 32 34 34 34 35 36 32 33
24 29 27 27 25 20 25 18 23 20 26 25 28 30 30 29 25 23 23 25 25 28 29 27 27 27 29 33 33 32 33 32 32 33 33 31 29 29 31 31 32 33 33 33 33 32 34 35 31
26 31 28 26 24 22 22 19 18 24 25 23 22 28 29 29 27 23 22 25 23 26 27 28 27 28 31 31 34 34 32 33 32 30 29 28 29 31 31 31 31 32 33 33 33 33 32 33 32
30 23 26 29 25 18 18 17 14 19 19 20 19 23 29 28 26 25 23 24 25 28 30 31 29 30 33 35 32 34 33 29 27 27 27 29 30 31 30 31 32 33 33 32 33 33 34 33 32
25 27 22 14 17 13 21 18 18 20 18 17 21 25 28 28 27 26 25 25 26 30 31 31 33 33 32 31 30 28 28 26 26 27 28 29 29 30 31 32 31 31 33 34 34 33 33 32 32
24 26 20 8 10 17 21 19 18 18 17 22 26 28 29 28 27 26 26 28 27 29 30 31 33 33 29 26 23 24 27 30 28 29 29 29 30 30 32 31 31 31 31 31 31 32 32 32 32
24 23 22 17 13 11 14 12 17 16 16 17 19 22 24 25 25 25 25 25 25 27 29 31 31 28 23 22 24 24 25 27 29 29 30 31 30 30 29 30 31 30 30 30 31 32 31 31 31
25 22 18 18 9 3 8 11 15 15 16 17 19 21 24 25 25 24 25 26 26 26 26 24 24 22 23 24 25 26 26 26 29 29 29 29 29 30 31 30 29 30 30 30 31 32 32 31 32
21 19 18 18 14 10 8 8 13 16 16 16 18 21 23 25 25 25 24 25 26 24 22 20 22 23 24 25 26 26 27 27 28 28 28 29 29 28 28 29 30 30 30 30 30 31 31 31 31
21 18 17 18 11 14 14 16 17 16 16 18 19 22 24 26 26 25 25 25 25 23 21 22 23 24 26 26 26 26 28 28 27 27 27 26 27 28 29 29 30 30 30 30 30 31 31 31 31

GFSSGP_sfc_dewp_066.txt.gz
Dewpoint
66 62 65 62 50 45 40 42 45 47 47 50 48 45 44 47 40 42 65 65 67 65 66 68 72 73 71 70 70 69 68 65 66 68 69 69 69 70 70 70 71 72 72 73 73 72 72 72 72
63 62 64 55 46 42 38 41 45 49 51 49 48 46 43 45 50 51 54 64 64 63 65 65 72 72 71 70 70 71 69 65 66 65 68 68 68 68 68 67 67 69 71 71 72 72 72 72 72
59 59 60 49 46 43 38 42 49 49 49 48 49 51 48 50 55 51 58 62 61 63 65 68 72 72 70 70 70 70 69 66 66 66 65 67 67 66 65 64 64 65 67 68 70 71 72 72 72
56 52 46 44 42 40 37 44 48 49 47 49 51 48 51 54 55 55 59 60 60 63 65 71 72 72 70 70 70 70 69 67 66 66 65 64 64 63 63 63 63 63 62 63 64 67 69 71 71
56 48 44 42 37 33 33 45 49 43 41 49 51 49 50 53 60 60 61 60 61 63 64 66 72 71 70 70 70 70 70 68 67 66 66 66 65 65 64 63 65 66 66 64 62 63 66 68 70
53 45 41 39 35 28 33 47 45 39 40 46 49 48 51 54 60 62 61 61 62 63 64 66 72 71 71 70 69 70 70 69 69 68 68 68 66 66 67 67 67 67 67 67 66 64 63 65 68
51 45 40 40 35 28 32 45 33 32 34 40 49 44 50 55 63 64 61 61 63 62 65 66 65 69 71 70 70 70 71 71 71 71 71 70 71 70 70 69 69 70 70 68 68 68 67 66 65
51 46 40 39 34 33 33 41 31 28 27 42 46 45 48 56 64 64 65 64 63 63 64 65 66 65 67 69 71 71 70 70 68 68 68 68 69 68 67 69 69 68 68 69 67 67 66 65 65
46 42 39 39 36 34 29 33 30 33 33 42 44 44 51 57 59 61 63 64 62 61 62 65 66 67 69 68 65 63 61 60 59 58 58 59 58 57 54 56 61 63 64 64 64 64 63 63 61
43 42 39 39 36 33 30 28 31 31 34 40 40 44 52 54 58 59 60 61 61 62 64 65 66 67 65 59 49 44 43 43 43 43 44 43 44 44 43 47 49 51 52 51 54 56 57 60 58
43 41 40 35 33 32 30 30 32 31 35 33 35 44 51 53 58 59 59 58 60 62 63 64 63 64 60 50 45 43 41 39 37 36 35 36 36 37 37 38 39 40 43 39 41 43 44 47 49
38 36 35 36 36 32 31 32 31 33 33 33 38 45 50 52 55 58 58 56 56 59 59 58 58 54 48 44 40 35 31 31 31 33 32 32 32 32 31 33 35 37 36 34 35 35 36 37 37
35 35 33 33 32 33 33 33 31 33 34 35 41 47 49 51 54 55 54 52 53 53 51 50 47 42 38 35 33 31 28 26 31 33 32 30 32 30 31 30 32 33 33 32 31 31 31 31 31
33 34 33 32 32 32 31 32 31 31 35 39 44 45 47 48 50 50 48 46 47 44 40 38 36 33 30 30 31 29 29 31 33 35 32 30 30 28 30 28 29 29 30 29 28 27 28 28 28
32 30 31 31 32 31 31 29 30 31 35 37 42 43 43 44 45 45 45 41 36 33 32 30 31 29 28 29 31 32 31 30 31 32 31 31 33 29 29 29 28 28 28 28 28 27 28 28 28
29 30 31 30 30 31 29 35 26 30 33 35 37 40 42 40 39 41 38 34 30 28 28 30 29 28 29 28 29 27 30 31 31 31 32 31 31 32 32 32 31 30 30 30 29 28 30 29 28
27 38 36 32 28 29 27 33 29 31 31 33 34 35 38 37 35 33 31 29 28 27 28 30 31 27 26 27 28 28 29 30 31 30 32 33 33 31 32 32 32 32 32 31 31 30 29 30 29
30 26 26 33 27 28 28 27 27 31 31 31 31 32 34 34 31 29 29 28 27 27 27 28 28 26 27 30 29 31 30 31 32 32 33 29 33 33 33 33 33 32 32 31 31 29 29 30 29
33 29 28 21 23 24 23 24 25 27 31 32 32 30 30 31 32 28 28 27 27 27 27 27 27 26 28 30 30 30 31 31 32 33 31 32 32 32 33 33 32 33 33 33 33 32 31 30 30
21 22 24 23 26 26 25 25 25 28 29 31 31 31 30 30 28 27 26 27 26 26 27 26 27 29 29 32 32 31 30 32 33 37 34 34 32 31 29 31 32 32 33 33 33 34 33 32 30
29 27 23 18 26 26 26 19 24 24 27 28 29 32 31 31 27 26 25 27 29 27 28 27 26 29 31 32 34 35 35 37 35 35 34 34 30 30 30 31 30 30 32 32 34 34 36 32 32
20 24 24 25 23 15 24 8 20 20 25 22 22 30 31 33 30 27 26 27 28 29 30 28 28 27 30 34 35 35 34 34 34 35 35 32 29 29 30 30 30 31 31 31 32 30 31 32 31
25 29 27 27 24 22 22 18 16 24 22 19 23 28 31 32 32 27 26 28 27 30 31 31 28 28 31 30 36 37 36 35 35 33 31 29 30 31 30 29 30 30 31 30 30 31 30 30 29
30 26 28 28 25 19 18 18 14 20 18 19 25 28 30 30 31 29 27 27 28 30 33 34 30 29 32 36 35 38 38 35 32 30 29 30 31 30 30 30 30 30 31 31 31 31 31 30 30
25 24 15 15 18 12 21 19 19 20 19 23 27 28 29 29 30 30 28 28 28 31 33 33 33 33 32 34 35 34 35 31 29 29 29 29 29 30 30 30 29 29 31 32 32 32 31 30 30
25 24 13 8 8 15 21 17 20 17 21 23 27 29 29 29 29 29 29 31 30 31 31 32 30 33 33 32 31 28 29 31 30 30 30 29 29 29 30 29 29 28 28 29 28 29 29 30 30
25 23 23 17 16 13 14 15 17 16 17 20 23 26 27 26 27 27 27 27 28 28 28 30 31 32 30 26 26 25 26 28 30 30 29 30 29 27 28 29 29 27 27 28 30 30 30 31 31
25 23 20 20 11 8 6 10 13 16 16 18 20 23 25 26 25 26 26 28 27 28 28 27 28 27 25 26 27 27 28 27 29 29 28 28 28 29 28 28 27 28 28 29 30 31 31 31 33
21 21 19 19 16 8 5 8 16 17 17 18 19 23 25 26 25 25 25 26 28 26 26 24 24 24 26 27 28 28 28 27 27 26 26 27 26 25 25 25 27 28 29 30 30 31 31 31 32
20 19 19 14 12 15 16 13 15 17 18 19 21 24 26 27 27 26 27 26 26 26 26 26 26 26 28 28 27 27 28 28 26 25 23 22 23 24 23 24 26 28 30 31 31 31 31 31 31

GFSSGP_sfc_dewp_072.txt.gz
Dewpoint
68 67 65 70 61 56 44 45 45 45 45 45 40 37 39 41 46 53 62 59 60 66 69 71 73 71 70 70 70 66 66 66 68 68 68 67 67 67 66 67 70 71 71 72 72 72 72 72 72
63 60 69 66 54 47 43 42 46 46 45 43 44 42 41 43 50 55 58 59 59 62 67 70 72 71 71 71 70 67 67 66 66 67 67 66 65 64 63 64 66 66 67 69 71 72 72 72 71
61 60 63 59 53 48 43 45 46 45 44 45 45 44 45 49 49 53 56 57 58 66 68 71 72 71 70 71 69 68 67 67 66 65 65 64 63 63 64 65 64 63 63 65 67 69 71 71 72
60 63 59 51 49 52 44 45 45 44 45 44 44 43 51 52 50 51 54 54 58 65 68 73 72 71 71 70 70 69 68 68 68 67 67 67 64 65 67 68 68 67 66 65 63 64 68 69 69
58 60 54 49 46 45 42 43 45 42 42 42 43 44 50 54 51 52 53 56 57 63 67 71 72 71 70 71 70 69 69 68 69 68 67 68 68 69 69 69 69 69 69 68 68 65 64 65 68
57 57 48 45 48 43 41 40 40 36 38 41 42 47 50 53 53 54 55 56 57 60 66 69 72 71 71 71 71 71 71 71 70 71 71 69 69 70 70 70 70 70 70 69 69 68 67 66 65
55 54 48 44 48 44 41 40 37 37 35 38 41 46 51 53 56 55 56 56 58 60 63 67 68 70 72 71 72 72 71 71 71 70 70 71 70 69 69 69 69 68 68 67 66 66 66 65 65
57 56 49 46 45 42 40 41 36 38 40 43 42 43 48 53 56 56 56 56 57 60 63 65 67 68 69 70 71 70 69 69 69 68 69 67 64 62 61 60 61 61 60 59 59 60 62 63 64
56 51 46 44 43 42 39 39 40 34 33 37 41 49 50 56 57 56 55 55 55 57 63 65 66 68 68 67 67 67 66 63 63 63 65 66 52 53 51 52 53 52 52 51 52 55 59 62 65
50 49 46 45 43 42 40 40 32 30 30 35 41 47 56 57 57 55 54 54 55 57 63 62 65 67 67 61 57 52 50 51 49 47 46 46 44 42 46 53 56 53 53 56 56 57 56 50 43
49 46 46 47 44 43 38 39 34 32 35 36 39 43 51 55 56 56 54 54 53 55 60 64 66 65 58 54 51 50 49 45 37 33 35 34 35 36 37 40 41 41 46 37 39 37 38 35 35
48 44 44 47 45 42 37 36 33 34 41 35 37 43 49 51 53 54 53 53 56 59 59 63 65 62 54 53 50 43 36 35 34 33 32 34 37 34 34 37 38 37 37 32 34 36 30 30 28
48 47 43 39 43 38 37 36 39 34 37 34 37 44 46 48 51 52 53 53 57 59 59 59 56 51 50 43 37 34 33 33 36 35 32 36 37 33 35 32 35 34 34 32 32 31 30 29 29
41 46 42 39 40 37 37 38 37 37 36 35 35 40 44 46 48 51 52 53 55 56 55 52 52 46 39 34 32 32 35 38 38 38 34 34 36 33 36 35 36 35 35 32 31 29 31 31 31
41 43 43 43 42 35 35 37 35 37 36 34 35 38 41 45 48 50 53 52 53 53 52 49 40 35 29 31 34 36 37 38 38 37 33 34 38 35 37 37 36 36 36 35 35 32 33 33 32
42 45 41 42 41 40 35 39 36 34 33 32 34 35 40 43 46 49 51 51 50 44 40 34 31 29 30 30 33 33 34 36 37 36 36 34 35 36 37 39 38 36 38 38 36 36 35 34 34
42 40 42 39 44 41 39 37 35 31 30 31 31 32 39 40 44 46 49 47 41 36 31 31 30 29 30 27 29 31 31 35 35 36 37 35 34 34 38 38 37 37 39 39 38 37 36 35 34
37 36 40 42 47 45 44 39 38 40 29 29 29 29 34 38 40 41 44 41 34 30 29 29 30 27 26 29 29 32 32 33 34 35 36 33 35 34 36 38 37 37 38 39 37 35 36 36 36
38 39 39 38 36 43 44 39 39 38 32 33 32 30 29 35 38 39 38 35 30 28 28 29 28 25 29 30 33 33 34 34 35 36 31 31 33 33 34 38 36 37 37 36 37 37 36 36 36
37 37 41 41 30 32 37 40 41 40 32 32 30 29 30 30 34 35 35 32 28 27 27 28 27 27 31 33 34 35 35 37 37 40 36 35 34 34 32 33 35 35 36 35 36 37 38 37 36
37 36 37 34 32 38 38 32 31 28 28 29 28 31 31 31 30 32 32 31 31 28 29 27 27 28 32 33 36 36 38 38 38 38 38 38 35 33 32 32 33 33 35 36 36 36 36 35 35
35 35 37 34 31 31 28 23 25 26 27 25 28 31 32 33 32 32 31 31 30 31 31 29 29 28 30 34 35 36 38 37 39 40 41 40 35 33 32 32 33 33 34 34 35 33 33 33 32
34 35 37 37 29 25 26 23 22 24 25 25 29 31 32 33 33 32 31 31 30 31 32 30 29 28 30 32 37 39 39 40 41 38 36 36 35 33 33 32 32 32 35 34 33 32 32 33 32
32 31 30 32 27 21 19 20 20 22 21 26 29 30 32 32 32 31 31 31 31 35 36 35 32 31 32 33 33 38 38 39 39 39 37 37 36 36 33 32 33 34 34 33 33 33 32 32 32
32 28 27 26 25 22 19 18 21 21 26 27 29 29 31 31 32 30 31 31 33 35 36 36 36 36 33 32 34 35 39 39 38 35 34 33 34 34 34 34 33 32 32 33 34 33 33 32 31
29 28 23 19 20 21 24 18 20 23 28 29 29 30 30 32 33 32 32 31 31 33 35 36 34 34 34 33 34 34 34 36 35 34 34 33 33 34 34 32 32 30 30 30 30 31 32 31 31
27 26 29 20 15 14 17 19 20 22 25 27 27 29 31 30 30 30 30 30 31 31 31 31 32 33 33 32 31 29 29 32 33 32 31 34 33 33 30 31 31 30 29 28 28 30 29 30 30
29 26 24 22 15 15 14 18 18 20 22 24 25 26 28 28 28 29 28 29 28 29 28 28 28 28 28 28 28 29 29 29 30 31 31 31 31 31 31 30 28 28 27 26 26 28 29 30 31
26 24 24 23 21 15 13 17 18 20 20 21 23 25 26 26 26 26 26 28 28 27 26 26 26 26 27 29 30 29 30 29 29 30 30 30 30 28 26 26 26 25 25 24 25 25 27 29 30
24 24 22 21 17 17 16 19 17 19 20 22 24 26 27 28 28 27 26 26 26 27 28 27 26 26 28 29 29 28 29 30 30 29 28 27 24 25 24 24 24 24 24 25 26 28 29 30 31

GFSSGP_sfc_dewp_075.txt.gz
Dewpoint
69 63 67 66 55 51 42 43 43 43 42 41 39 41 44 46 52 53 61 67 69 70 71 71 72 70 70 69 66 66 66 67 68 67 66 65 65 65 67 68 69 69 71 72 72 72 72 71 72
67 62 66 63 52 46 40 41 44 43 42 43 43 42 44 48 53 57 57 66 68 70 71 71 71 71 70 69 67 67 66 66 67 66 65 64 63 64 64 65 65 66 67 69 71 72 72 72 72
63 62 59 58 54 47 41 44 43 44 43 44 43 45 47 49 55 57 57 63 67 68 70 69 71 71 71 69 68 68 67 66 65 66 64 63 65 67 67 67 65 64 64 64 65 69 70 70 71
57 59 57 50 49 50 45 44 44 43 44 42 47 49 51 51 51 54 57 67 68 70 70 72 71 71 70 70 70 69 68 68 68 68 68 65 67 68 68 69 69 68 68 67 64 64 65 68 68
55 57 53 49 49 47 45 44 44 41 41 42 44 49 50 51 52 53 55 66 68 70 71 69 71 71 71 70 70 69 69 69 69 68 68 69 69 69 70 70 70 70 69 69 69 68 67 65 64
49 54 48 47 49 47 42 43 43 39 41 40 48 48 50 51 52 53 56 64 67 70 71 69 71 71 72 71 71 71 71 71 71 71 70 70 70 70 70 70 69 69 68 68 67 67 66 66 66
48 51 50 48 47 46 41 41 39 36 40 37 46 49 51 52 53 54 56 62 64 69 70 69 70 71 73 72 72 71 71 71 71 70 70 69 69 67 67 67 65 64 61 61 60 62 63 63 65
53 53 49 48 47 43 42 39 33 34 41 40 47 48 50 53 55 55 56 60 65 67 68 68 69 69 71 70 71 71 70 70 70 69 67 64 62 58 58 57 56 55 55 54 56 59 61 60 64
53 47 45 46 45 42 41 35 34 34 36 38 44 49 51 55 55 55 55 56 62 64 65 68 68 69 69 68 69 68 67 65 66 67 67 56 53 50 49 57 58 52 53 55 56 56 57 53 51
47 46 44 47 46 43 43 35 30 27 32 39 44 54 54 56 55 55 54 55 62 64 65 66 67 67 66 64 61 59 58 55 53 48 54 43 42 46 48 53 52 50 51 50 51 51 49 43 35
47 43 46 47 48 46 42 36 33 28 31 37 41 53 56 56 56 55 54 55 62 63 64 65 66 66 58 55 53 49 48 35 34 32 34 34 35 36 37 39 39 36 44 34 36 34 33 29 31
46 49 50 47 49 42 41 36 31 31 36 37 42 50 55 55 56 56 54 53 61 62 65 66 66 56 54 54 50 45 34 32 31 32 33 34 35 32 33 35 35 34 34 31 32 32 30 30 30
46 49 51 41 44 45 40 36 33 33 34 37 42 49 52 53 55 55 55 58 60 61 62 64 57 52 49 35 33 32 33 33 33 33 34 35 34 34 34 33 35 34 33 32 31 30 31 30 31
46 48 48 43 44 45 36 38 36 37 34 33 42 46 48 50 51 53 56 59 58 56 53 52 50 42 35 31 30 34 36 35 35 35 35 35 34 34 35 35 35 35 34 34 33 31 32 32 31
41 40 41 43 45 43 43 40 37 36 34 32 34 41 45 47 48 51 53 57 55 53 52 49 41 33 29 31 34 35 36 37 35 34 33 36 37 36 37 35 35 35 35 36 35 34 34 34 33
39 41 37 42 42 41 42 40 38 32 32 33 34 36 41 44 47 52 52 54 53 50 41 35 31 30 30 30 32 34 35 36 36 35 34 34 35 36 38 37 36 36 37 38 36 36 35 35 34
41 37 40 36 43 42 43 37 42 48 39 29 31 34 39 42 47 50 50 48 43 34 30 29 29 30 30 29 31 32 33 34 35 36 35 33 34 37 37 36 36 37 38 38 37 36 35 35 35
35 37 40 40 45 44 42 43 48 50 46 39 29 30 38 41 44 48 44 39 33 30 29 28 30 28 27 28 30 32 32 33 34 36 35 34 35 34 36 37 36 37 36 36 35 35 36 35 35
39 37 38 42 48 46 48 45 43 39 37 34 29 31 30 38 41 44 37 32 30 29 28 28 27 25 27 29 30 31 31 32 33 35 32 33 34 34 34 37 35 36 35 35 35 36 35 35 36
41 40 41 40 35 34 41 38 38 41 39 31 30 29 31 30 38 38 32 29 28 28 28 28 26 26 28 31 32 32 32 35 35 37 33 34 33 33 33 33 34 33 34 33 34 35 35 37 36
40 39 41 40 40 33 35 33 33 35 30 29 29 31 32 32 34 34 31 28 27 27 28 27 27 26 31 32 35 36 37 37 37 37 37 36 34 34 32 31 32 32 33 34 33 35 34 34 34
37 39 37 31 32 31 33 25 23 27 25 28 30 31 32 33 33 33 31 29 27 27 29 28 28 28 31 32 35 34 36 34 36 37 39 38 37 34 32 31 32 32 33 33 33 34 32 32 31
39 39 36 33 31 24 26 21 20 26 25 28 29 30 31 32 33 32 31 29 28 30 29 29 28 28 30 33 35 37 37 39 40 39 37 37 36 34 32 32 32 31 33 34 32 31 31 32 32
35 32 34 28 25 19 21 22 18 22 23 28 29 30 31 32 31 31 31 30 30 31 31 31 31 31 31 33 35 36 35 36 38 38 36 37 36 36 33 33 33 33 32 32 32 32 31 31 32
34 30 26 24 20 18 19 20 18 22 26 28 29 30 31 31 30 31 31 32 35 35 36 35 34 34 33 32 32 34 37 37 37 35 34 32 33 33 33 33 32 31 31 31 31 31 31 31 31
32 27 26 20 22 22 19 16 19 25 28 29 29 30 31 32 31 30 30 30 31 32 33 34 34 34 34 33 33 35 35 36 35 33 33 32 32 33 33 32 31 30 30 30 30 30 30 30 31
28 25 27 18 16 15 20 18 20 27 28 28 29 29 30 29 29 29 29 29 29 29 29 30 32 32 30 28 29 28 29 31 32 31 30 32 33 33 31 30 30 30 30 29 28 29 28 29 29
27 26 17 20 9 14 15 17 18 22 25 26 26 27 28 28 27 27 27 28 27 27 26 26 26 26 27 28 29 29 29 29 30 30 30 30 30 31 31 30 28 28 28 27 27 28 28 28 30
21 23 22 20 21 15 11 15 19 21 24 25 25 26 27 27 27 27 27 26 27 26 25 26 26 26 28 30 29 28 28 29 29 30 30 29 28 26 25 25 26 25 25 24 24 24 25 27 28
22 22 20 19 14 16 18 17 18 21 23 24 24 26 27 27 27 26 26 26 27 27 27 26 26 26 28 29 28 28 29 30 30 30 28 26 24 25 25 24 24 24 25 25 25 27 28 29 29

GFSSGP_sfc_dewp_078.txt.gz
Dewpoint
67 63 66 66 52 50 41 41 42 43 40 40 42 40 43 49 53 49 63 68 70 71 71 71 70 70 67 66 66 66 67 67 66 65 64 65 65 66 68 69 69 70 70 72 71 71 71 71 72
65 63 66 62 50 45 39 42 43 44 41 42 43 45 47 49 56 63 65 69 70 71 71 69 70 70 68 67 66 66 67 66 65 64 64 64 64 64 64 65 65 66 68 69 71 71 71 71 72
60 63 58 56 54 47 40 44 43 43 43 43 43 48 48 51 57 61 65 69 70 70 70 69 71 71 69 68 68 67 66 65 66 64 64 67 67 68 67 66 65 64 64 64 65 67 68 68 70
56 58 56 51 47 49 48 43 44 42 43 45 49 49 51 53 56 58 66 69 69 70 69 71 71 71 70 69 69 68 68 68 68 67 66 68 68 68 69 69 68 68 68 68 66 65 64 64 64
55 57 52 49 48 48 44 45 43 41 41 43 48 49 49 52 56 64 66 68 69 70 70 69 71 70 70 70 69 69 69 69 68 69 69 68 69 70 71 70 70 68 69 68 68 67 66 66 66
47 54 48 46 49 49 43 44 42 41 42 48 49 49 49 51 57 66 67 68 70 70 69 69 71 71 70 70 70 71 71 71 71 70 70 70 70 70 69 69 68 66 65 64 65 64 63 65 66
47 50 48 47 47 46 43 43 41 39 40 43 49 49 50 51 53 65 66 68 70 69 68 68 69 72 72 72 71 71 70 71 70 70 70 69 68 67 65 63 59 57 57 57 58 57 57 62 62
51 52 49 49 47 43 45 41 41 40 38 43 51 49 48 51 53 61 64 66 69 69 69 69 70 70 71 71 71 71 70 70 69 67 65 63 58 58 57 56 56 54 54 54 54 54 53 54 54
52 46 46 46 48 46 42 33 35 37 38 42 47 51 52 52 54 59 60 65 67 68 68 69 69 70 69 69 70 69 67 68 68 64 62 56 49 49 51 57 55 52 52 53 52 52 51 49 48
46 45 46 47 48 43 41 33 30 32 38 43 51 53 52 53 54 56 60 63 65 65 67 68 69 68 68 68 66 61 58 57 53 61 43 43 45 47 48 50 52 51 50 50 50 50 47 41 32
47 43 50 45 46 46 41 33 32 32 34 41 50 52 53 54 54 54 57 62 63 64 67 68 68 67 64 62 56 51 39 34 34 36 35 35 38 36 37 37 36 35 42 33 35 33 33 30 31
45 48 50 49 46 42 41 38 30 31 30 37 53 53 54 54 54 54 54 60 63 64 66 67 66 61 56 55 50 48 32 31 33 33 33 33 34 32 33 34 34 34 34 31 31 32 31 31 30
44 48 52 49 45 43 41 38 34 35 36 40 53 55 55 55 56 56 55 60 63 64 65 66 61 55 53 46 38 35 34 31 33 34 35 34 35 33 35 34 35 34 34 33 32 32 32 31 32
46 48 49 44 44 48 37 42 44 37 37 42 51 54 55 55 55 55 58 60 61 64 64 62 55 46 34 31 32 33 34 34 35 35 35 34 35 35 35 34 35 35 35 34 33 33 33 33 33
41 43 41 41 42 44 49 36 40 35 34 41 45 49 51 52 53 54 59 58 57 60 55 53 42 33 28 31 34 36 36 35 34 35 36 36 37 35 35 35 34 35 36 35 35 35 35 35 34
39 40 37 41 39 41 45 38 43 46 37 35 40 43 45 47 48 53 58 55 53 52 50 46 34 30 31 31 34 35 36 36 35 34 35 36 37 37 36 36 35 36 38 38 36 36 35 35 35
41 36 37 36 41 44 44 40 40 48 42 36 31 34 40 43 51 54 56 53 51 44 35 31 30 30 30 30 32 34 34 35 35 34 34 34 37 37 36 36 36 37 37 37 36 35 35 35 35
36 37 38 35 40 44 42 39 46 50 49 46 41 33 36 42 50 52 53 50 41 32 30 29 29 29 29 30 31 32 33 34 36 35 34 33 36 36 37 37 36 36 36 35 34 34 35 35 35
38 37 37 41 46 43 40 43 44 46 46 44 42 30 31 39 43 47 47 38 32 29 28 28 29 28 28 30 30 31 31 32 34 36 35 34 34 34 35 37 35 36 35 34 35 35 35 34 35
40 37 38 36 48 42 46 45 47 45 41 39 33 31 30 31 42 37 37 31 30 28 28 28 27 27 27 31 30 30 31 33 33 37 33 35 34 34 34 34 35 34 35 32 33 34 34 36 35
41 40 39 35 41 36 36 35 34 38 34 30 30 31 32 32 40 34 31 30 29 28 28 26 25 26 29 30 35 37 37 37 37 37 35 35 34 34 33 32 34 33 33 33 32 33 34 32 33
40 41 42 40 37 36 37 30 23 29 26 29 30 30 31 33 37 34 28 28 28 28 29 28 26 26 29 32 35 34 35 33 35 36 37 37 36 34 34 32 32 32 33 33 33 34 32 33 30
40 40 41 42 36 28 28 22 21 25 26 28 29 31 31 32 33 34 29 27 27 28 28 28 28 28 30 31 35 36 35 37 38 39 38 37 37 35 34 32 31 32 32 33 33 31 31 32 31
41 36 38 35 30 25 25 24 20 24 24 28 29 30 31 31 32 33 30 28 29 30 30 30 29 29 30 32 34 35 35 37 39 38 37 36 36 35 33 33 32 32 32 31 32 31 31 31 31
39 37 29 24 20 21 21 22 22 22 27 28 29 30 30 29 31 31 30 31 33 34 34 34 34 34 32 32 34 35 35 34 35 36 34 33 33 33 32 32 32 31 31 31 31 30 30 30 30
37 38 24 18 19 19 21 19 18 26 28 29 30 31 31 31 30 30 31 32 32 33 33 34 34 33 33 33 33 35 37 38 36 33 33 32 32 32 33 32 31 30 30 30 30 30 30 29 30
27 28 26 18 18 17 19 18 21 28 28 29 29 29 30 29 29 29 29 29 29 28 29 32 32 30 28 28 29 29 30 31 31 31 30 32 32 33 31 31 31 30 30 29 28 29 28 28 28
29 31 20 19 11 10 15 16 19 26 27 28 28 28 28 27 27 27 27 27 27 26 26 26 27 27 27 29 29 29 29 29 30 30 29 30 30 29 27 26 26 26 26 25 25 26 27 26 28
26 28 24 24 20 14 12 16 19 24 27 27 27 27 27 27 26 26 26 26 26 25 25 25 25 26 28 29 29 28 29 29 30 30 29 27 26 25 25 25 25 25 25 24 24 24 25 25 26
25 22 20 20 14 16 16 16 18 24 27 27 26 27 28 28 27 27 27 26 26 26 26 26 26 26 27 29 28 29 29 30 29 29 27 25 24 25 25 25 25 25 25 25 25 26 26 28 30

GFSSGP_sfc_dewp_081.txt.gz
Dewpoint
67 63 66 66 53 47 40 41 42 42 40 40 43 41 43 52 51 46 63 68 70 71 71 68 69 67 66 67 67 67 67 66 65 64 65 65 66 68 69 69 69 70 70 71 71 71 71 71 72
65 64 66 61 49 45 40 41 42 44 40 45 45 46 46 51 59 65 65 69 71 71 71 68 70 68 67 66 66 67 66 65 64 64 64 64 64 64 65 65 66 66 67 69 70 69 69 70 70
59 63 57 55 51 47 40 43 43 42 42 43 45 48 48 52 62 65 66 70 71 70 69 68 70 68 68 67 66 66 66 65 64 64 66 67 67 66 65 65 65 64 64 64 64 64 64 65 64
56 58 55 50 49 50 47 43 43 42 43 47 49 49 51 55 62 62 68 70 70 70 68 70 70 69 68 68 68 67 67 68 66 66 67 68 68 68 69 69 67 68 68 68 67 67 66 67 67
56 56 52 48 48 48 46 44 44 42 41 46 48 49 49 53 60 67 68 70 70 69 69 68 71 69 69 69 69 69 68 69 68 68 68 68 70 69 70 69 68 67 68 67 67 66 66 67 67
48 53 48 46 47 49 45 44 43 40 42 47 49 48 49 59 65 67 68 69 69 69 68 68 70 70 70 69 70 70 70 69 69 70 70 70 70 69 68 66 65 62 62 62 61 61 65 63 60
46 51 47 47 46 46 43 44 41 40 44 45 50 48 50 58 64 67 68 69 69 69 68 68 69 69 70 71 71 71 70 70 70 70 69 69 68 65 63 59 58 57 58 57 57 57 57 57 56
49 50 49 49 46 44 45 43 43 41 40 48 51 48 48 52 65 67 68 69 69 68 68 68 70 70 71 70 71 70 70 70 69 68 66 61 60 58 56 57 56 55 55 55 54 54 53 54 54
53 48 47 46 47 46 44 37 38 40 42 43 49 50 50 53 65 65 65 68 68 68 68 68 69 70 70 70 70 70 70 68 66 62 58 53 49 50 50 57 55 54 53 53 53 52 51 48 49
47 45 46 48 49 44 44 34 31 37 42 46 51 52 51 55 63 62 64 65 66 67 68 68 69 68 68 68 66 61 62 62 62 52 46 45 47 48 48 51 52 51 51 51 50 50 47 41 32
45 44 48 50 47 48 43 34 32 38 38 45 49 51 51 55 60 60 63 65 66 66 68 68 68 68 67 65 59 49 40 40 51 41 41 43 36 35 34 35 35 35 42 33 35 34 33 31 32
45 46 49 50 45 43 41 36 30 36 35 38 49 51 51 53 56 59 61 64 64 65 67 68 68 66 61 58 49 37 32 33 34 34 34 33 33 32 33 34 34 34 33 32 33 33 32 32 31
44 48 51 49 48 43 41 39 33 32 36 45 53 51 51 52 54 57 59 62 64 65 66 67 66 60 55 50 45 33 35 32 34 34 34 34 34 33 34 34 34 34 34 33 33 33 33 33 33
44 47 50 50 47 47 40 41 38 37 40 53 53 53 52 53 54 55 56 62 63 65 66 66 62 56 48 41 35 33 33 34 34 35 34 34 35 34 35 34 35 35 34 34 34 33 34 34 33
46 46 46 42 44 43 47 38 37 41 39 50 53 54 55 55 56 55 56 62 63 65 65 62 56 50 46 33 33 34 35 35 35 35 34 35 36 34 34 35 34 35 36 35 35 35 34 34 34
40 41 39 40 41 42 44 38 40 47 41 43 48 51 52 52 54 55 59 61 63 63 61 56 52 40 31 32 35 35 35 35 35 36 37 37 37 35 35 35 35 37 38 36 35 36 34 35 34
39 36 37 37 40 42 42 40 39 49 43 37 39 43 46 48 46 54 58 58 60 59 54 48 33 30 32 32 34 35 34 34 34 35 35 36 38 37 36 36 36 37 37 36 35 35 35 34 34
36 37 35 34 40 43 42 42 46 49 48 39 34 36 41 42 45 54 56 55 57 52 52 34 30 30 30 32 33 34 34 34 35 34 34 35 38 36 37 36 36 36 35 35 34 33 34 34 34
38 37 36 38 41 41 42 43 44 50 50 48 46 38 32 39 48 54 53 46 36 34 32 30 29 29 30 31 31 31 32 33 34 35 34 33 35 36 36 37 35 36 34 33 34 35 33 33 35
38 37 37 37 46 40 41 39 45 46 45 43 43 38 30 38 46 49 44 36 36 32 31 29 28 29 29 31 31 31 31 32 33 36 35 35 34 34 34 36 35 34 35 32 32 33 33 35 34
40 38 37 38 42 36 41 37 38 39 41 33 31 31 31 33 43 43 37 34 30 28 29 28 28 28 29 30 36 36 37 37 36 36 35 34 34 34 34 33 34 34 34 33 31 33 33 32 33
39 42 41 40 39 37 39 34 29 28 31 29 30 31 32 32 40 37 35 31 29 28 29 28 27 27 28 32 33 33 34 33 35 36 37 36 34 33 34 33 32 32 33 32 32 33 33 33 30
40 43 43 41 38 36 30 28 28 26 26 28 29 30 31 31 36 33 31 32 29 29 29 27 26 27 28 32 33 34 34 35 36 38 38 38 37 37 35 33 31 32 33 32 32 31 31 32 31
43 38 38 38 36 29 30 30 28 24 24 27 29 30 31 31 31 32 28 28 28 29 29 29 27 28 30 32 34 34 34 36 38 38 38 36 36 35 33 33 32 32 33 32 32 31 31 30 31
40 38 29 29 30 27 26 27 29 21 24 28 28 29 29 30 32 30 28 30 31 30 32 31 31 32 31 31 33 34 35 34 35 36 36 34 33 33 32 32 31 31 31 31 31 30 30 30 30
38 38 28 22 19 20 26 21 20 26 29 29 30 30 30 30 30 31 32 33 33 33 33 34 34 33 33 33 34 36 38 38 36 34 33 32 32 32 33 32 31 30 30 30 30 30 30 29 29
35 34 35 21 18 19 19 18 21 28 28 29 29 29 29 29 30 30 30 30 31 31 33 34 30 29 29 29 29 29 31 31 31 31 31 32 32 32 30 29 28 26 26 26 26 27 27 27 27
30 39 24 28 14 10 13 16 18 26 27 28 29 28 27 28 28 28 28 27 27 26 27 28 28 28 28 29 29 29 29 29 30 30 29 29 29 27 25 25 25 25 25 24 24 25 26 25 26
26 25 23 21 18 13 12 15 20 25 28 28 28 28 27 27 27 27 26 26 25 25 25 26 26 27 28 29 29 28 29 29 30 29 29 27 26 24 24 25 25 25 25 24 24 24 25 25 25
27 24 21 22 16 16 16 15 18 20 28 28 28 28 28 27 27 26 26 26 26 26 26 26 26 26 27 29 28 29 29 29 29 29 27 25 24 25 25 25 25 25 25 25 25 26 26 27 27

GFSSGP_sfc_dewp_084.txt.gz
Dewpoint
67 64 66 64 53 46 41 41 42 41 39 41 42 44 46 52 50 44 64 68 70 71 70 67 68 67 68 68 67 67 66 65 64 65 66 67 68 69 69 69 69 70 71 71 70 70 70 70 71
64 65 65 60 48 45 43 42 41 42 41 47 46 47 46 51 60 64 65 69 71 71 69 66 68 67 67 67 67 66 65 64 64 64 64 64 65 66 66 66 66 66 67 67 66 66 67 66 66
60 63 58 55 49 45 42 41 43 43 44 43 48 49 47 52 63 64 66 70 71 70 68 67 69 68 66 66 67 66 65 64 64 65 66 66 65 65 65 65 65 65 65 65 65 65 66 67 66
58 58 55 51 48 50 45 43 43 41 42 47 49 48 51 57 64 65 69 70 70 69 67 70 69 68 67 66 66 66 66 65 65 67 67 67 68 68 68 67 68 68 68 68 68 68 68 67 67
57 56 51 48 47 48 47 46 42 41 42 47 48 48 49 56 64 68 69 70 69 68 68 67 70 69 68 68 68 68 68 67 67 68 67 69 70 70 69 68 67 67 66 64 65 66 65 62 62
48 53 48 46 47 48 47 44 43 42 43 48 48 48 51 60 67 68 69 69 69 68 68 69 70 69 69 69 69 69 69 69 70 69 69 70 69 68 66 64 62 62 61 60 61 61 60 59 58
44 51 47 46 46 46 47 44 41 40 44 47 48 47 51 61 66 67 68 69 68 68 68 68 68 69 70 70 71 70 70 70 70 70 69 69 67 64 60 59 59 58 59 58 57 58 58 57 56
49 50 48 47 46 45 45 44 43 40 43 50 50 46 48 58 66 68 68 68 68 68 68 68 69 68 68 70 71 71 70 71 69 68 65 62 60 59 59 58 57 57 56 56 55 54 55 55 55
53 48 46 48 47 46 47 42 41 41 46 48 50 49 50 62 66 67 67 67 68 67 67 68 69 69 70 69 70 70 71 69 65 61 60 53 49 50 52 57 56 55 55 54 53 52 50 49 50
49 46 47 49 50 46 48 39 35 40 43 44 50 51 57 65 66 65 64 64 64 66 67 68 69 68 69 69 65 65 66 61 57 47 44 46 47 50 51 52 53 53 53 52 51 49 47 40 33
45 45 46 50 49 50 48 42 41 42 42 43 48 50 60 63 64 64 65 64 64 66 67 68 68 67 67 65 59 55 53 58 47 43 45 36 34 34 34 35 35 36 42 34 35 34 34 32 33
44 46 49 49 47 46 45 42 33 44 42 41 50 51 57 62 62 63 64 64 64 66 66 68 67 66 65 61 52 41 39 48 39 40 36 33 33 32 33 34 34 33 33 33 33 34 32 33 32
46 46 49 48 48 44 44 41 37 40 41 45 51 51 54 59 61 61 63 64 65 65 65 67 67 64 61 52 38 34 38 38 35 35 34 33 34 33 34 33 34 34 34 34 33 33 33 33 32
42 45 50 50 45 48 39 40 39 37 40 51 50 50 52 54 57 58 61 63 64 65 66 67 66 60 55 47 37 34 33 34 35 34 34 33 34 34 34 34 35 35 34 35 34 33 34 34 33
43 44 46 47 43 44 44 38 36 43 43 52 51 51 52 53 55 56 59 62 64 65 66 66 63 58 56 50 34 34 34 35 35 34 33 34 35 34 34 35 35 35 35 35 34 34 34 34 33
43 43 41 43 41 41 43 38 40 47 46 51 53 53 54 55 55 55 57 62 64 65 65 63 62 57 49 46 35 33 35 35 35 35 35 36 36 35 35 36 36 37 37 36 35 35 34 34 34
39 37 38 38 41 42 42 38 39 49 46 48 51 51 53 54 53 55 58 61 64 65 63 60 55 50 44 33 34 34 34 34 35 36 37 36 37 36 36 36 36 37 36 35 34 35 34 33 33
35 36 35 36 39 43 42 41 46 49 47 45 46 46 50 52 52 51 59 61 64 63 60 53 49 43 38 34 34 34 34 34 34 34 36 36 38 36 36 36 36 36 35 34 34 32 34 33 34
38 37 34 36 41 42 42 42 44 49 51 48 43 41 41 41 48 55 56 58 58 56 49 46 42 42 33 33 33 33 33 33 34 34 34 35 37 36 36 36 35 36 34 33 33 34 32 33 34
38 37 37 38 44 39 41 42 46 46 48 48 48 48 44 35 47 54 49 44 50 50 48 44 39 32 31 32 32 31 32 33 34 36 35 34 34 36 35 36 35 35 35 33 32 32 32 34 33
39 38 37 37 40 37 41 38 39 42 45 42 36 41 38 34 42 50 43 39 40 45 44 40 35 29 31 31 34 35 36 35 34 35 35 35 35 34 34 34 35 34 34 33 31 32 32 31 32
37 42 40 41 40 36 39 34 35 35 35 31 30 31 31 31 41 45 41 34 35 43 39 30 29 28 30 32 33 32 33 32 34 34 36 35 33 34 34 33 33 33 34 33 32 33 33 33 30
38 45 42 42 37 35 32 33 33 26 25 29 29 31 31 32 34 39 39 34 29 29 29 29 28 28 29 31 33 33 32 33 35 36 36 37 37 37 35 34 32 31 33 32 32 33 32 32 31
43 40 40 37 35 31 35 34 34 25 25 27 29 30 31 30 31 34 31 30 29 29 29 28 27 28 29 31 33 33 33 34 36 37 37 37 36 35 33 33 32 32 33 32 32 31 30 31 31
41 38 31 30 30 31 27 31 34 26 24 27 28 29 29 30 32 29 29 30 29 30 30 29 28 29 30 31 32 34 34 34 35 36 36 35 33 33 32 32 31 31 31 31 31 30 30 30 30
39 37 31 27 27 28 28 28 29 27 29 30 30 29 30 30 31 29 30 30 30 31 32 32 32 32 33 33 34 35 36 37 36 35 33 33 32 32 32 31 30 30 30 30 29 30 30 29 29
37 35 34 21 18 21 23 19 20 28 29 29 28 28 29 30 31 31 32 32 32 33 33 33 32 31 30 30 31 31 32 32 32 31 31 32 32 32 29 27 25 25 25 25 25 26 26 26 26
34 37 35 34 19 12 13 16 19 25 27 29 28 27 28 29 29 29 29 29 29 31 31 29 28 28 28 29 29 29 29 30 30 30 29 29 28 26 25 25 25 25 25 25 24 25 25 25 26
26 27 28 34 28 20 12 15 20 20 27 28 29 27 28 28 28 27 26 26 26 26 26 26 27 28 28 29 28 28 29 29 29 29 28 27 26 24 24 25 25 25 25 25 24 24 25 25 26
29 25 23 25 19 17 17 17 18 19 25 29 29 28 28 28 28 26 25 25 25 26 26 26 26 27 28 29 28 29 30 29 29 29 27 25 24 24 24 25 25 25 25 25 25 25 26 26 27

GFSSGP_sfc_dewp_087.txt.gz
Dewpoint
65 68 68 66 56 51 46 45 43 43 40 40 42 44 45 49 48 44 65 68 69 70 69 68 69 68 68 68 68 68 66 65 65 67 68 68 68 69 69 68 70 70 69 69 68 68 68 68 68
64 65 67 62 51 46 45 43 43 43 43 48 46 47 45 50 60 64 66 69 69 69 68 66 68 68 68 67 67 66 64 64 64 64 65 65 66 67 66 66 66 66 65 64 66 66 67 67 67
62 63 61 58 52 48 46 43 45 43 47 44 48 48 47 52 62 64 66 69 69 68 66 66 68 68 67 67 67 66 65 65 65 65 65 64 64 65 65 66 66 66 66 66 67 67 67 67 68
61 60 57 54 50 51 49 44 45 42 44 44 49 46 52 58 63 65 69 69 69 67 66 68 68 67 67 67 67 66 65 65 67 67 68 68 67 66 68 68 67 68 67 67 68 66 64 65 68
59 58 53 51 49 50 49 47 44 42 43 47 47 47 50 60 64 67 69 68 68 67 67 66 69 68 67 67 67 67 66 66 67 66 68 69 70 69 69 67 67 64 65 67 64 62 61 63 67
53 55 50 49 49 49 49 49 47 43 44 48 47 48 53 61 66 68 68 68 68 67 67 66 68 69 68 68 68 68 68 68 69 69 70 70 69 68 64 63 63 62 62 63 62 61 60 60 66
48 52 48 48 48 47 48 47 43 43 45 47 48 47 52 62 66 68 68 68 68 67 67 68 66 68 70 70 69 69 69 70 70 70 69 68 64 62 61 61 61 61 60 59 60 59 58 58 59
51 53 48 49 47 46 46 44 44 43 44 49 49 46 50 59 67 68 68 67 67 67 67 67 67 66 67 69 71 71 70 70 70 68 65 62 62 61 60 60 59 58 58 57 56 55 56 56 55
54 48 46 47 48 48 46 44 46 46 47 49 50 48 50 63 67 67 66 66 67 67 67 68 67 68 69 70 69 70 70 69 66 64 60 55 54 55 55 58 57 56 55 55 54 52 50 48 51
51 47 46 50 51 48 47 46 43 43 47 45 50 53 61 65 65 64 64 64 65 66 66 68 68 68 69 69 68 69 65 60 56 50 49 49 51 52 52 54 55 55 54 53 51 49 46 40 34
47 44 48 49 50 47 47 45 45 44 46 47 48 53 62 64 64 63 63 64 64 65 66 68 70 69 69 67 67 66 62 55 46 44 45 43 42 41 40 40 40 41 43 35 37 36 35 35 34
42 46 47 48 51 48 46 44 38 46 48 40 48 56 62 63 63 62 63 63 64 65 66 67 69 70 69 67 64 60 59 52 44 45 34 35 35 34 35 35 38 38 37 36 36 35 36 34 32
44 45 47 49 47 43 44 40 38 42 46 47 51 58 61 62 62 63 63 64 64 64 65 66 68 69 68 61 55 50 57 53 44 41 35 36 38 35 36 35 37 37 37 36 36 35 34 33 32
41 44 46 50 45 46 41 39 38 37 46 50 53 55 60 61 62 63 64 64 64 64 64 66 67 67 64 59 47 43 48 48 41 41 37 35 37 35 37 37 38 37 37 37 36 35 35 34 32
43 41 47 49 46 44 42 38 37 41 44 52 52 52 55 60 61 61 62 63 64 65 65 66 66 66 62 56 47 40 42 39 39 39 35 36 38 36 37 37 37 36 36 35 36 35 35 36 34
41 43 40 45 44 42 45 44 39 45 48 52 52 52 53 54 58 59 61 63 64 64 66 66 66 63 59 54 42 38 36 37 38 37 37 36 37 38 38 39 39 39 38 38 37 37 36 36 35
39 33 40 40 42 42 43 42 40 47 47 51 53 54 55 53 54 56 58 62 64 65 66 66 64 61 57 46 42 35 35 37 37 36 37 38 38 37 38 39 40 40 39 38 37 38 37 36 36
33 37 38 39 40 42 42 40 43 48 45 48 52 55 55 54 53 55 57 61 64 65 66 64 62 58 49 46 35 36 36 36 37 37 38 36 38 38 39 40 40 39 40 38 38 36 37 37 36
38 38 36 37 40 41 42 42 42 48 50 47 46 49 50 52 51 52 59 62 64 64 63 61 57 50 43 36 35 35 36 36 37 38 37 38 39 38 40 40 39 40 39 38 38 38 37 37 36
26 33 35 42 42 40 42 41 44 47 48 49 47 43 43 39 45 53 56 60 61 62 60 57 56 48 40 36 35 35 34 36 37 40 38 39 39 39 38 40 39 39 40 39 38 39 38 38 36
28 31 37 37 39 39 41 39 40 43 45 47 46 48 49 49 39 48 52 54 57 58 56 54 49 45 41 35 36 37 38 38 38 38 38 38 37 38 38 38 38 38 39 39 38 38 39 36 36
32 38 40 41 40 35 38 33 38 39 40 41 43 37 42 39 38 46 51 48 49 54 52 49 47 38 34 36 36 36 38 36 37 38 39 38 37 37 37 36 37 37 38 37 37 36 37 38 35
35 44 42 43 40 38 34 35 36 26 30 34 34 33 33 34 35 44 48 44 43 45 45 45 38 33 33 34 38 38 37 37 38 38 38 38 39 38 37 36 36 36 36 36 36 36 35 36 35
43 41 41 39 39 34 35 35 35 31 28 28 30 32 33 32 32 39 42 36 36 40 41 37 33 32 34 36 36 38 38 37 38 39 39 40 40 39 36 36 37 37 36 36 36 36 35 34 33
42 39 35 33 33 30 28 34 34 29 24 26 29 30 30 31 32 33 35 34 34 37 36 35 34 33 32 34 35 36 38 37 38 39 40 39 37 36 35 35 34 35 37 36 36 35 34 33 33
40 39 35 27 30 31 29 30 32 26 29 30 30 30 31 31 32 32 33 35 34 35 33 33 32 32 32 33 34 36 38 39 38 39 37 35 35 35 35 34 33 32 32 32 32 32 32 32 31
38 37 36 21 19 23 26 23 22 28 29 29 29 30 31 31 32 32 33 32 33 33 33 34 34 34 34 35 36 36 36 37 36 35 34 35 34 33 32 30 29 28 28 28 29 29 28 28 28
38 40 34 36 20 15 14 17 26 25 28 29 28 29 30 31 31 32 32 33 33 33 33 33 32 31 31 31 31 31 31 32 33 33 33 33 31 30 30 29 28 28 27 27 28 29 28 27 28
30 30 31 35 30 23 18 19 20 21 27 29 29 29 29 30 30 29 29 30 31 30 30 29 29 29 30 30 30 31 31 31 31 31 31 31 29 28 28 27 27 27 28 27 26 26 27 27 27
28 26 33 32 23 19 18 24 18 19 20 30 30 29 29 30 29 27 27 26 26 27 28 28 29 29 31 31 30 30 31 31 31 30 29 27 27 27 27 26 27 26 26 27 26 26 26 26 27

GFSSGP_sfc_dewp_090.txt.gz
Dewpoint
62 66 68 67 55 50 42 43 45 42 39 40 40 41 41 46 42 46 67 65 65 65 64 68 69 70 70 70 69 68 66 67 68 69 68 68 69 68 68 69 69 69 68 68 68 68 68 68 71
62 63 65 63 49 41 37 42 45 44 42 42 44 45 45 46 57 62 64 66 65 65 63 66 69 69 68 68 67 66 64 64 65 65 66 67 68 67 66 66 65 64 65 67 68 68 68 69 71
61 63 61 53 47 42 40 46 45 43 43 42 42 45 39 49 59 60 63 65 65 64 64 65 69 69 68 67 66 65 64 65 65 65 65 65 65 65 66 66 66 66 67 67 67 67 68 69 71
60 61 57 50 44 46 46 46 44 42 43 44 44 40 48 56 58 59 64 64 63 62 64 68 69 68 68 67 66 65 65 66 67 67 67 66 67 68 68 67 67 67 68 67 64 64 66 69 71
59 56 48 47 45 45 48 49 46 43 42 43 43 41 47 58 61 63 64 62 60 61 62 65 68 67 67 68 67 66 66 67 67 67 69 69 69 69 68 67 65 67 66 64 63 63 66 68 69
51 52 46 44 45 45 47 49 46 43 42 44 41 42 50 60 62 63 63 61 60 62 62 63 68 68 68 68 68 68 67 68 70 70 70 70 69 66 65 64 64 64 64 63 61 61 63 67 68
49 49 45 45 45 45 46 49 46 46 43 43 44 41 52 58 61 62 61 60 61 62 61 61 62 67 69 69 69 69 69 70 70 70 69 66 64 63 63 63 62 61 61 61 60 59 59 60 61
47 49 46 46 45 45 46 47 47 47 44 48 46 43 50 57 61 61 61 61 60 60 60 60 61 62 64 67 70 70 70 70 70 68 66 64 63 62 62 61 60 59 58 57 56 57 57 56 55
51 45 44 45 46 45 47 46 46 47 46 47 47 47 50 59 61 62 61 60 59 59 60 60 60 61 65 68 68 69 70 70 67 64 62 60 58 57 57 59 58 57 56 55 53 52 48 49 50
46 44 44 45 46 47 47 46 46 44 45 46 48 52 55 60 60 60 60 59 58 59 60 60 60 62 65 65 66 67 67 63 59 55 52 52 53 53 53 56 56 55 53 51 49 46 43 44 30
39 40 42 46 47 49 47 46 45 45 46 44 45 52 58 60 59 60 60 60 58 58 60 60 61 63 65 64 64 67 62 56 49 48 47 48 49 49 45 44 39 39 39 33 35 33 31 32 30
36 36 39 45 47 49 47 46 45 45 46 46 45 52 58 59 58 58 59 59 58 58 60 62 63 65 66 65 65 65 60 52 45 43 38 38 36 33 33 34 37 37 35 34 34 33 34 32 29
32 31 35 42 44 48 46 46 45 44 47 45 44 53 58 58 57 57 58 59 58 58 60 62 67 66 65 65 64 63 59 51 45 40 36 34 35 32 34 34 35 36 36 34 34 33 32 32 31
27 35 32 36 44 46 44 44 40 42 43 45 49 52 56 57 58 57 58 59 59 59 60 63 68 68 65 63 62 61 59 54 47 42 37 33 34 33 35 35 36 36 35 35 33 33 33 32 31
32 26 31 38 32 45 46 44 41 42 41 45 48 51 55 58 59 58 58 59 60 59 60 63 67 67 65 64 61 53 56 54 47 42 35 34 36 34 34 34 34 34 33 32 34 33 34 35 33
26 31 22 25 38 39 45 40 44 41 40 41 47 50 54 57 59 59 59 59 60 60 61 63 67 67 65 62 58 48 47 50 44 39 36 35 37 36 36 36 37 36 37 38 37 37 37 36 35
21 15 25 22 38 40 43 39 42 43 42 43 47 49 51 54 57 58 59 60 60 61 62 63 67 66 65 56 49 50 39 40 38 37 36 37 37 36 37 37 38 38 38 37 37 38 37 37 37
11 13 19 25 29 43 42 42 42 44 43 47 49 50 51 51 52 56 58 61 63 64 63 65 67 66 60 52 41 38 37 37 37 36 36 34 37 37 37 39 39 38 39 39 39 37 38 37 36
20 15 17 25 30 38 40 40 41 44 43 45 49 50 50 51 53 54 57 61 61 61 65 66 65 64 59 55 42 38 38 37 37 37 35 36 36 37 39 39 38 40 40 39 39 39 37 39 37
25 21 23 29 30 37 35 40 42 43 43 43 44 46 48 48 51 52 55 56 60 63 64 65 64 62 57 53 44 41 38 36 37 39 38 39 39 38 38 39 39 40 40 41 40 41 39 38 37
28 26 22 28 38 40 34 33 39 44 44 46 44 44 43 46 48 50 53 56 60 61 63 64 63 59 56 48 42 39 39 39 39 39 39 39 38 39 39 38 38 39 40 40 41 41 42 38 38
27 27 25 32 38 34 39 23 33 39 42 43 45 45 46 45 47 45 52 55 59 61 63 61 61 57 51 46 41 39 37 35 35 36 38 38 37 36 37 37 38 38 39 39 40 38 39 40 37
29 29 26 33 37 35 36 29 30 38 40 41 43 45 46 48 48 44 47 50 53 58 60 60 57 54 48 42 41 40 38 37 38 37 38 38 39 38 38 37 37 38 38 38 38 37 37 37 37
34 35 37 39 40 34 28 31 26 33 35 37 37 39 40 38 36 40 46 49 50 54 55 56 56 49 43 41 40 41 40 37 36 38 37 39 40 40 38 39 39 40 40 39 39 39 38 37 35
39 33 32 33 33 31 32 32 29 35 31 30 29 33 35 34 34 37 43 45 47 51 53 54 48 40 38 39 37 38 40 37 36 38 38 40 39 40 39 38 37 38 41 39 39 37 36 35 35
31 32 33 32 25 26 30 28 26 31 30 30 30 32 33 33 34 35 40 44 46 50 50 44 39 36 35 35 35 36 39 38 38 39 39 39 38 38 38 37 36 35 35 35 35 34 35 34 33
37 35 42 36 23 26 27 27 27 25 28 29 30 31 33 33 34 34 37 41 42 43 38 35 35 35 33 33 34 34 36 40 40 39 37 37 36 35 36 34 33 32 32 31 31 31 30 29 28
36 39 35 37 26 21 20 21 26 26 26 29 29 31 32 33 33 34 35 36 35 35 33 33 33 33 34 34 35 35 34 34 35 34 34 35 34 34 33 33 32 31 29 28 29 30 29 28 29
33 33 35 34 30 27 20 18 19 21 23 28 29 30 32 32 32 33 34 34 33 33 33 32 32 32 32 32 32 32 31 31 31 32 33 33 33 32 31 30 29 29 29 28 27 27 27 27 28
21 25 34 33 28 23 24 24 18 20 21 30 29 31 32 32 32 31 32 31 31 31 32 31 31 31 32 32 31 31 32 32 31 31 30 30 30 30 28 27 27 27 27 28 27 27 27 27 27

GFSSGP_sfc_dewp_093.txt.gz
Dewpoint
64 64 68 67 56 49 41 40 42 42 39 37 38 38 38 40 45 52 65 59 60 62 65 66 71 72 71 69 69 68 68 69 69 69 69 69 69 69 70 69 68 67 68 68 69 68 70 71 70
60 60 65 61 48 39 39 38 41 44 42 40 40 41 38 46 55 62 61 61 60 60 63 65 69 71 70 69 69 66 66 66 67 67 67 68 68 67 66 66 65 66 68 68 68 69 70 71 70
63 60 60 52 44 39 38 40 42 44 43 42 40 41 36 48 56 58 60 61 60 59 61 66 70 69 69 68 66 65 65 65 65 65 66 66 66 66 67 67 67 67 67 66 66 67 70 71 70
57 60 57 49 42 43 41 41 44 44 42 42 40 35 44 52 54 56 59 59 60 59 63 69 69 69 68 66 66 66 66 66 66 65 66 67 67 68 68 66 67 68 66 65 65 68 70 71 70
54 56 50 44 42 41 43 44 47 44 43 42 41 37 45 53 56 58 59 59 58 58 63 66 69 68 68 67 66 66 67 68 67 68 68 68 69 69 67 66 67 66 64 64 65 69 69 70 70
52 51 46 41 41 43 42 44 48 45 42 42 40 36 48 57 57 58 58 57 56 58 60 63 68 68 68 68 67 67 68 68 69 69 69 69 68 67 65 65 65 64 63 62 62 65 66 68 68
50 49 45 43 42 42 43 44 46 46 44 43 39 35 51 54 57 57 57 55 57 58 58 58 61 66 69 69 69 68 69 70 70 70 68 67 65 65 64 63 63 62 62 61 61 60 62 62 62
49 49 46 46 42 43 45 45 47 46 45 44 41 37 49 53 56 57 56 55 56 56 55 56 58 61 63 66 70 70 70 70 70 68 66 66 65 63 62 62 60 59 58 57 57 57 57 56 54
49 45 44 44 44 43 45 46 47 47 46 45 42 43 47 55 56 56 56 54 55 54 55 56 57 60 63 64 68 70 70 69 67 65 66 64 59 57 58 59 58 57 55 54 52 49 46 51 50
43 41 41 42 43 44 45 46 45 46 46 46 43 49 52 56 55 56 55 54 53 54 56 55 56 58 62 62 65 67 67 64 59 56 55 53 54 55 54 57 56 54 52 50 46 42 44 49 29
34 37 35 36 42 45 45 46 47 46 46 46 44 48 54 55 56 56 55 54 53 55 56 55 56 58 60 59 63 64 62 57 52 49 47 48 51 51 49 48 42 40 47 33 38 37 33 32 32
28 28 30 33 36 45 46 47 45 46 46 47 47 47 55 55 55 55 55 54 53 55 56 56 57 59 60 59 64 61 57 51 47 45 42 42 39 34 34 35 38 39 35 34 35 34 35 33 30
20 22 26 27 33 39 44 47 45 45 47 50 48 48 54 55 55 55 55 54 53 54 56 57 58 59 62 63 65 61 57 50 46 41 37 35 35 32 34 34 35 36 36 34 35 34 33 32 31
20 22 27 25 27 36 37 39 45 46 46 47 47 47 52 55 54 55 55 54 54 54 57 59 60 60 64 61 63 61 58 52 47 43 38 33 34 33 35 35 36 36 35 34 33 33 34 33 32
23 23 23 24 30 28 36 39 40 43 43 44 47 47 50 54 55 54 55 55 54 54 57 59 63 62 63 64 61 64 62 53 48 43 36 34 36 33 34 35 35 34 33 31 33 33 34 35 34
23 19 18 21 19 27 29 34 37 40 42 42 46 46 49 53 55 55 56 55 55 54 56 60 66 65 63 65 60 52 53 55 51 42 37 34 35 35 36 37 37 36 37 37 36 36 37 37 37
20 16 14 13 20 18 31 29 33 33 41 42 43 46 49 54 56 58 59 57 56 55 56 60 66 66 65 60 57 52 53 53 47 42 38 36 36 35 37 38 39 38 40 38 38 37 37 37 38
17 14 11 12 12 21 24 33 36 31 41 43 44 44 46 50 55 56 59 58 56 57 59 62 67 66 63 57 51 49 44 45 43 39 37 34 38 36 39 39 40 38 41 39 39 37 38 39 38
22 20 17 15 13 18 27 33 36 35 45 44 45 45 46 46 51 55 57 57 59 62 60 65 66 65 61 57 48 44 42 40 39 39 35 34 36 37 39 40 38 40 41 40 41 40 39 40 38
24 19 19 18 15 18 24 28 33 34 44 44 46 46 45 45 47 53 56 58 61 60 57 66 66 65 63 60 51 45 41 41 40 44 38 37 37 37 37 39 40 39 42 42 42 43 42 41 40
25 20 20 18 17 20 28 25 30 32 42 43 44 46 46 45 47 51 54 56 58 55 60 63 66 64 63 60 49 47 44 43 42 41 40 38 37 38 38 38 38 39 41 43 44 44 45 42 42
24 24 23 22 22 26 28 28 27 30 40 42 44 43 44 47 48 49 51 53 54 57 62 64 65 64 61 56 50 46 43 41 40 40 39 39 37 37 38 37 38 38 40 41 42 40 42 44 40
27 27 25 25 23 28 36 29 20 26 33 39 43 44 44 45 48 47 49 52 55 59 61 62 63 61 60 52 49 47 43 38 37 36 38 37 38 36 37 37 37 39 40 39 39 39 39 39 40
34 29 29 31 31 30 37 38 20 24 26 32 39 44 45 48 48 48 48 50 55 60 62 62 61 60 56 52 47 46 44 39 37 38 38 39 39 40 38 38 39 40 40 41 41 41 41 39 38
35 31 33 33 35 32 36 37 36 38 32 31 34 39 44 45 43 41 46 50 51 56 58 60 59 57 52 46 42 42 46 40 37 38 36 39 39 41 41 40 39 40 42 41 41 40 39 38 38
34 31 35 29 29 34 35 33 31 34 31 31 31 36 38 37 37 39 44 47 50 54 56 57 56 49 44 41 40 42 45 39 36 37 37 38 39 39 40 39 38 36 36 36 36 36 37 36 35
33 35 40 34 35 34 29 27 28 28 30 32 32 33 35 35 36 37 43 46 50 53 54 51 45 41 39 37 38 36 37 39 39 40 39 39 38 38 37 35 34 32 32 32 33 33 32 31 31
35 39 35 37 34 29 24 26 25 25 28 29 31 33 34 34 34 37 40 44 47 45 44 41 37 35 35 37 35 37 36 38 38 36 35 35 35 34 34 34 32 32 31 30 30 31 30 28 31
33 33 34 36 31 34 23 16 17 21 26 28 30 32 33 33 35 36 37 39 39 38 37 35 34 33 34 37 36 34 33 32 31 32 33 33 33 32 31 30 30 29 29 28 27 27 27 27 27
28 24 29 35 34 31 33 19 21 23 28 29 31 33 33 34 36 36 36 35 34 33 33 32 32 33 34 33 32 31 31 31 31 30 30 29 29 30 29 28 28 27 27 27 27 27 26 26 28